Location: Newark
(43.0000°N, 1.6781°W)
Time: 02:53:15
(UTC+00:00)

X-37B - Pass Details

Date: 12 December 2021
Orbit: 334 x 337 km, 45.0° (Epoch: 11 January)

Event Time Altitude Azimuth Distance (km) Brightness Sun altitude
Rises 17:17:30 0° 263° (W) 2,101 6.0 -8.2°
Reaches altitude 10° 17:19:31 10° 267° (W) 1,266 4.5 -8.5°
Maximum altitude 17:22:20 64° 350° (N) 373 0.4 -9.0°
Enters shadow 17:24:37 14° 71° (ENE) 1,049 2.1 -9.4°
